Regional Weather Roundup
Issued by NWS Sterling, VA

Home | Current Version | Previous Version | Graphics & Text | Print | Product List | Glossary On
Versions: 1 2 3 4 5 6 7 8 9 10 11 12 13 14 15 16 17 18 19 20 21 22 23 24 25 26 27 28 29 30 31 32 33 34 35 36 37 38 39 40 41 42 43 44 45 46 47 48 49 50
000
ASUS41 KLWX 262110
RWRLWX

REGIONAL WEATHER ROUNDUP
NATIONAL WEATHER SERVICE BALTIMORE MD/WASHINGTON DC
400 PM EST WED NOV 26 2014

Note: "FAIR" indicates few or no clouds below 12,000 feet
with no significant weather and/or obstructions to visibility.
 TC=TEMPERATURE CELSIUS

 * =Non NWS site. Station does not report precipitation (e.g. rain,
    snow, etc.), thunder, or fog.

DCZ001-MDZ009-015-VAZ040>042-051-053>054-262200-
WASHINGTON METRO

CITY           SKY/WX    TMP DP  RH WIND       PRES   REMARKS
WASHINGTON NAT FLURRIES  37  32  82 NW14      29.96R WCI  28
DULLES         LGT SNOW  32  32 100 NW9       29.96R FOG     WCI  24
ANDREWS AFB    RAIN      36  32  87 NW15      29.91R WCI  26
FT BELVOIR     FLURRIES  35  33  91 NW8       29.96R WCI  29
QUANTICO       FLURRIES  36  32  85 N12G24    29.97R WCI  28
COLLEGE PARK*  CLOUDY    36  34  93 NW6       29.93R
LEESBURG*      LGT SNOW  34  34 100 NW7       29.97R
GAITHERSBURG*  CLOUDY    34  30  86 NW7       29.97R

$$

MDZ006>007-011-014-262200-
BALTIMORE METRO

CITY           SKY/WX    TMP DP  RH WIND       PRES   REMARKS
BWI AIRPORT    LGT RAIN  35  33  92 NW8       29.91R FOG     WCI  29
MD SCIENCE CTR   N/A     36  33  89 MISG      29.91R
MARTIN STATE   RAIN      36  36 100 NW16      29.88S WCI  26
ANNAPOLIS      LGT SNOW  36  34  92 NW16G23   29.89R FOG     WCI  26
FORT MEADE*    CLOUDY    34  32  93 NW8G16    29.95R WCI  27

$$

MDZ012-015-019>023-262200-
MARYLAND EASTERN SHORE

CITY           SKY/WX    TMP DP  RH WIND       PRES   REMARKS
OCEAN CITY     RAIN      42  40  92 N16G25    29.69F
SALISBURY      LGT RAIN  42  38  85 N12G20    29.74R FOG
BAY BRIDGE AP* LGT RAIN  37  36  93 NW20G25   29.88R WCI  27
CAMBRIDGE*     CLOUDY    39  36  87 NW16      29.82R
EASTON*        RAIN      39  39 100 N13G18    29.86R

$$

MDZ017>025-262200-
SOUTHERN MARYLAND

CITY           SKY/WX    TMP DP  RH WIND       PRES   REMARKS
PATUXENT RIVER LGT RAIN  38  35  89 NW25G31   29.87R FOG     WCI  27
ST INIGOES     RAIN      38  34  85 NW10G23   29.87R FOG
LEONARDTOWN*   CLOUDY    36  34  93 NW9G20    29.89R WCI  29

$$

MDZ003>005-262200-
NORTH CENTRAL MARYLAND

CITY           SKY/WX    TMP DP  RH WIND       PRES   REMARKS
FREDERICK*     LGT RAIN  36  32  87 VRB5      29.99R
HAGERSTOWN APT LGT SNOW  34  32  92 NW5       29.96R VSB 3/4
WESTMINSTER*   LGT SNOW  34  32  93 N6        29.91S

$$

MDZ501>502-262200-
WESTERN MARYLAND

CITY           SKY/WX    TMP DP  RH WIND       PRES   REMARKS
OAKLAND*         N/A     32 N/A N/A NW3       29.91S FOG
CUMBERLAND*    CLOUDY    34  34 100 CALM      30.03R

$$

VAZ025>031-262200-
SHENANDOAH VALLEY

CITY           SKY/WX    TMP DP  RH WIND       PRES   REMARKS
WINCHESTER*    LGT SNOW  34  32  93 NW6       29.98R
FRONT ROYAL*     N/A     32  32 100 MISG        N/A
LURAY*         LGT SNOW  34  34 100 CALM      29.98R
NEW MARKET*    CLOUDY    32  32  99 CALM      29.98R
STAUNTON*        N/A    N/A N/A N/A MISG        N/A
WAYNESBORO*    CLOUDY    32  32 100 CALM      29.95S

$$

WVZ021-048>050-054>055-262200-
EASTERN WEST VIRGINIA PANHANDLE

CITY           SKY/WX    TMP DP  RH WIND       PRES   REMARKS
MARTINSBURG    LGT SNOW  35  31  85 NW5       29.98R FOG
PETERSBURG*    LGT SNOW  34  34  98 CALM      30.00S

$$

VAZ036>039-050-262200-
CENTRAL FOOTHILLS

CITY           SKY/WX    TMP DP  RH WIND       PRES   REMARKS
CHARLOTTESVILL LGT RAIN  37  35  92 CALM      29.96R FOG
CULPEPER*      LGT RAIN  36  36 100 NW3       29.98R
ORANGE*        LGT RAIN  36  34  93 CALM      29.98S
GORDONSVILLE*  CLOUDY    35  34  95 CALM      29.96S
WARRENTON*     LGT RAIN  36  36 100 NW5       29.96R

$$

VAZ055>057-262200-
NORTH AND CENTRAL PIEDMONT

CITY           SKY/WX    TMP DP  RH WIND       PRES   REMARKS
FREDERICKSBRG* LGT RAIN  37  37 100 NW9       29.96R
STAFFORD*      LGT RAIN  34  34 100 NW10      30.00R WCI  26

$$

NCZ024-NYZ072-PAZ021-071-VAZ022-071-262200-
OTHER REGIONAL OBSERVATIONS

CITY           SKY/WX    TMP DP  RH WIND       PRES   REMARKS
NEW YORK CITY  LGT RAIN  36  32  85 N15G22    29.85F FOG     WCI  27
PHILADELPHIA   LGT RAIN  37  33  85 N17G26    29.83R WCI  27
PITTSBURGH     LGT SNOW  33  31  92 N5        30.00S FOG
ROANOKE        PTCLDY    40  36  86 CALM      29.98S
RICHMOND       LGTSLEET  37  34  89 NW16      29.93R FOG     WCI  28
RALEIGH        CLOUDY    43  38  82 VRB3      29.99R

$$

ANZ530>537-262200-
MARINE OBSERVATIONS

STATION/POSITION TIME  TEMP    WIND        PRES
                       AIR SEA DIR/SP/G
                 (UTC) (F)     (DEG/KT/KT) (MB)
THOMAS PT LIGHT  2100   36 47  320/ 22/ 25 1012.5R
BALT KEY BRIDGE  2100   36     310/ 19/ 22 1011.9R
COVE POINT       2100   37     340/ 23/ 28 1010.8R
LEWISETTA        2100   39 49  320/ 19/ 27 1011.6R
SOLOMONS ISLAND  2100      49                N/A
PINEY POINT      2100          340/ 25/ 27   N/A

$$




USA.gov is the U.S. government's official web portal to all federal, state and local government web resources and services.